Weather History for KCOM - December, 2012

Change the Weather History Date:

Friday, December 14, 2012

  Actual Average (KABI) Record (KABI)
Temperature  
Mean Temperature 59 °F 45 °F  
Max Temperature 64 °F 57 °F 80 °F (1995)
Min Temperature 54 °F 34 °F 9 °F (1901)
Degree Days  
Heating Degree Days 6 20  
Month to date heating degree days 259  
Since 1 July heating degree days 692  
Cooling Degree Days 0 0  
Month to date cooling degree days 0  
Year to date cooling degree days 2408  
Growing Degree Days 9 (Base 50)    
Moisture  
Dew Point 51 °F    
Average Humidity 78    
Maximum Humidity 91    
Minimum Humidity 59    
Precipitation  
Precipitation 0.07 in 0.04 in 0.83 in (1967)
Month to date precipitation 0.56  
Year to date precipitation 24.15  
Sea Level Pressure  
Sea Level Pressure 29.97 in    
Wind  
Wind Speed 11 mph (South)    
Max Wind Speed 20 mph    
Max Gust Speed 25 mph    
Visibility 10 miles    
Events Rain    
T = Trace of Precipitation, MM = Missing Value Source: NWS Daily Summary

Daily Weather History Graph

Daily Weather History Graph

Search for Another Location

Airport or City:

Trip Planner

Search our weather history database for the weather conditions in past years. The results will help you decide how hot, cold, wet, or windy it might be!

Date:

Astronomy

Dec. 14, 2012 Rise Set
Actual Time 7:30 AM CST 5:35 PM CST
Civil Twilight 7:03 AM CST 6:02 PM CST
Nautical Twilight 6:32 AM CST 6:32 PM CST
Astronomical Twilight 6:02 AM CST 7:02 PM CST
Moon 8:39 AM CST (12/14) 7:25 PM CST (12/14)
Length of Visible Light 10h 59m
Length of Day
10h 05m
Waxing Crescent, 3% of the Moon is Illuminated
Dec 14
Waxing Crescent
Dec 19
First Quarter
Dec 28
Full
Jan 4
Last Quarter
Jan 11
New

Hourly Weather History & Observations

Time (CST) Temp. Dew Point Humidity Pressure Visibility Wind Dir Wind Speed Gust Speed Precip Events Conditions
12:15 AM 56.7 °F 44.4 °F 64% 30.12 in 10.0 mi South 11.5 mph - N/A   Overcast
12:35 AM 56.3 °F 43.9 °F 63% 30.12 in 10.0 mi South 9.2 mph - N/A   Overcast
12:55 AM 56.3 °F 43.5 °F 62% 30.12 in 10.0 mi South 10.4 mph - N/A   Overcast
1:15 AM 56.3 °F 43.2 °F 61% 30.11 in 10.0 mi South 8.1 mph - N/A   Overcast
1:35 AM 56.3 °F 42.8 °F 61% 30.12 in 10.0 mi South 8.1 mph - N/A   Overcast
1:55 AM 56.3 °F 42.8 °F 61% 30.12 in 10.0 mi South 6.9 mph - N/A   Overcast
2:15 AM 56.3 °F 42.3 °F 59% 30.11 in 10.0 mi South 8.1 mph - N/A   Overcast
2:35 AM 56.3 °F 42.1 °F 59% 30.10 in 10.0 mi South 6.9 mph - N/A   Overcast
2:55 AM 56.3 °F 41.9 °F 59% 30.09 in 10.0 mi SSE 10.4 mph - N/A   Overcast
3:15 AM 56.3 °F 42.1 °F 59% 30.09 in 10.0 mi South 9.2 mph - N/A   Overcast
3:35 AM 56.3 °F 42.6 °F 60% 30.09 in 10.0 mi South 11.5 mph - N/A   Overcast
3:55 AM 56.3 °F 43.2 °F 61% 30.08 in 10.0 mi South 11.5 mph - N/A   Overcast
4:35 AM 56.3 °F 44.6 °F 65% 30.08 in 10.0 mi South 9.2 mph - N/A   Overcast
5:15 AM 56.3 °F 46.6 °F 70% 30.06 in 10.0 mi South 10.4 mph - N/A   Overcast
5:35 AM 56.3 °F 46.8 °F 70% 30.06 in 10.0 mi South 11.5 mph 18.4 mph N/A   Overcast
5:55 AM 56.1 °F 47.3 °F 72% 30.05 in 10.0 mi SSE 13.8 mph - N/A   Overcast
6:15 AM 56.1 °F 47.5 °F 73% 30.05 in 10.0 mi South 11.5 mph 17.3 mph N/A   Overcast
6:35 AM 55.9 °F 47.8 °F 74% 30.06 in 10.0 mi SSE 12.7 mph 16.1 mph N/A   Overcast
6:55 AM 55.9 °F 48.7 °F 77% 30.06 in 10.0 mi South 12.7 mph - N/A   Overcast
7:15 AM 56.1 °F 49.5 °F 78% 30.06 in 10.0 mi South 10.4 mph - N/A   Overcast
7:35 AM 55.8 °F 50.0 °F 81% 30.05 in 10.0 mi SSE 11.5 mph 19.6 mph N/A   Overcast
7:55 AM 55.2 °F 50.7 °F 85% 30.05 in 7.0 mi South 11.5 mph 16.1 mph N/A   Overcast
8:15 AM 55.0 °F 51.3 °F 87% 30.04 in 7.0 mi SSE 13.8 mph 18.4 mph N/A   Overcast
8:35 AM 54.9 °F 51.4 °F 88% 30.05 in 7.0 mi South 10.4 mph - N/A   Overcast
8:55 AM 55.2 °F 51.4 °F 87% 30.06 in 10.0 mi SSE 11.5 mph - N/A   Overcast
9:15 AM 55.6 °F 51.6 °F 87% 30.06 in 7.0 mi South 9.2 mph - N/A Rain Rain
9:35 AM 55.4 °F 52.2 °F 89% 30.06 in 7.0 mi SSE 9.2 mph - 0.01 in Rain Light Rain
9:55 AM 55.2 °F 52.2 °F 89% 30.06 in 7.0 mi SSE 10.4 mph - 0.03 in Rain Rain
10:15 AM 55.0 °F 52.2 °F 90% 30.04 in 7.0 mi SE 10.4 mph - 0.02 in Rain Light Rain
10:35 AM 55.0 °F 52.2 °F 90% 30.03 in 7.0 mi SSE 12.7 mph - 0.02 in Rain Light Rain
10:55 AM 55.4 °F 52.7 °F 91% 29.98 in 7.0 mi SE 17.3 mph 20.7 mph 0.04 in Rain Light Rain
11:15 AM 55.9 °F 53.4 °F 91% 29.97 in 10.0 mi SE 19.6 mph 25.3 mph N/A   Overcast
11:35 AM 57.2 °F 54.3 °F 90% 29.98 in 10.0 mi SSE 16.1 mph 24.2 mph N/A   Overcast
11:55 AM 58.3 °F 55.0 °F 89% 29.98 in 10.0 mi SSE 17.3 mph 23.0 mph N/A   Overcast
12:15 PM 58.1 °F 55.0 °F 90% 29.96 in 10.0 mi SSE 15.0 mph 21.9 mph N/A   Overcast
12:35 PM 58.1 °F 55.0 °F 90% 29.92 in 10.0 mi SSE 15.0 mph 23.0 mph N/A   Overcast
12:55 PM 58.3 °F 55.2 °F 90% 29.93 in 10.0 mi South 15.0 mph 18.4 mph N/A   Overcast
1:15 PM 58.6 °F 55.6 °F 90% 29.92 in 10.0 mi South 16.1 mph 19.6 mph N/A   Overcast
1:55 PM 59.4 °F 55.9 °F 88% 29.88 in 10.0 mi South 15.0 mph 25.3 mph N/A   Overcast
2:35 PM 58.8 °F 56.1 °F 91% 29.84 in 10.0 mi SSE 18.4 mph 25.3 mph N/A   Overcast
2:55 PM 58.8 °F 56.1 °F 91% 29.83 in 10.0 mi SSE 16.1 mph - N/A   Overcast
3:35 PM 59.4 °F 56.3 °F 90% 29.82 in 10.0 mi SSE 15.0 mph 21.9 mph N/A   Overcast
3:55 PM 59.5 °F 56.5 °F 90% 29.81 in 10.0 mi SSE 16.1 mph 23.0 mph N/A   Overcast
4:15 PM 60.3 °F 57.2 °F 90% 29.80 in 10.0 mi SSE 16.1 mph 20.7 mph N/A   Overcast
4:35 PM 60.4 °F 57.2 °F 89% 29.81 in 10.0 mi SSE 13.8 mph 19.6 mph N/A   Overcast
4:55 PM 60.4 °F 57.4 °F 90% 29.80 in 10.0 mi SSE 12.7 mph - N/A   Overcast
5:15 PM 61.2 °F 58.1 °F 90% 29.80 in 10.0 mi South 17.3 mph 21.9 mph N/A   Overcast
5:35 PM 62.6 °F 58.5 °F 86% 29.80 in 10.0 mi South 17.3 mph 21.9 mph N/A   Overcast
5:55 PM 63.0 °F 58.5 °F 85% 29.81 in 10.0 mi South 15.0 mph 19.6 mph N/A   Overcast
6:15 PM 63.0 °F 58.6 °F 86% 29.82 in 10.0 mi South 15.0 mph - N/A   Overcast
6:35 PM 63.1 °F 58.8 °F 86% 29.84 in 10.0 mi South 11.5 mph - N/A   Overcast
6:55 PM 63.3 °F 59.0 °F 86% 29.84 in 10.0 mi South 11.5 mph 17.3 mph N/A   Overcast
7:35 PM 63.3 °F 59.0 °F 86% 29.85 in 10.0 mi South 9.2 mph - N/A   Overcast
7:55 PM 63.1 °F 58.8 °F 86% 29.84 in 10.0 mi South 10.4 mph - N/A   Overcast
8:15 PM 63.1 °F 58.8 °F 86% 29.90 in 10.0 mi West 10.4 mph - N/A   Overcast
8:35 PM 64.2 °F 58.3 °F 81% 29.91 in 10.0 mi West 11.5 mph 19.6 mph N/A   Overcast
8:55 PM 64.4 °F 57.2 °F 77% 29.91 in 10.0 mi West 10.4 mph 16.1 mph N/A   Overcast
9:15 PM 64.6 °F 56.3 °F 74% 29.92 in 10.0 mi West 11.5 mph 17.3 mph N/A   Overcast
9:35 PM 63.7 °F 52.5 °F 67% 29.93 in 10.0 mi WNW 12.7 mph 24.2 mph N/A Rain Light Rain
9:55 PM 60.8 °F 46.8 °F 60% 29.94 in 10.0 mi WNW 8.1 mph - N/A   Overcast
10:15 PM 59.7 °F 46.2 °F 61% 29.93 in 10.0 mi WNW 5.8 mph - N/A   Overcast
10:35 PM 59.2 °F 46.2 °F 62% 29.93 in 10.0 mi WNW 4.6 mph - N/A   Overcast
10:55 PM 58.8 °F 45.7 °F 62% 29.93 in 10.0 mi West 4.6 mph - N/A   Overcast
11:15 PM 58.1 °F 45.5 °F 63% 29.93 in 10.0 mi West 3.5 mph - N/A   Overcast
11:35 PM 57.6 °F 45.1 °F 63% 29.93 in 10.0 mi WNW 4.6 mph - N/A   Overcast
11:55 PM 57.2 °F 45.0 °F 64% 29.93 in 10.0 mi West 4.6 mph - N/A   Overcast